Location: Dal�� Lhota
(48.7500°N, 14.0167°E)
Time: 02:23:47
(UTC+00:00)

SPOT 5 - Pass Details

Date: 24 September 2020
Orbit: 623 x 815 km, 98.3° (Epoch: 29 October)

Event Time Altitude Azimuth Distance (km) Brightness Sun altitude
Exits shadow 20:33:50 38° 356° (N) 1,225 4.3 -33.3°
Drops below altitude 10° 20:37:05 10° 349° (N) 2,414 6.2 -33.7°
Sets 20:39:28 0° 348° (NNW) 3,354 7.1 -33.9°
